When you browse on this site, cookies collect data to enhance your experience and personalize the content and advertising you see.
Visit our Privacy Policy to learn more. By continuing to use the site, you agree to this use of cookies and data.
  • Em Portugal
  • Lista de países
  • Para 7 dias
  • Temperatura da água
  • Mapas de satélite
  • Mapa do tempo
  • Widgets de tempo
  • user-avatar
    Iniciar Sessão

    Previsão horária em Muslah

    Hoje, 27 Junho, Quinta-feira

    Tempo Temperatura Precipitação Vento Pressão Humidade
    00:00 +14°C° 0 mm 1 m/s 610 mmHg 76%
    01:00 +14°C° 0 mm 1 m/s 610 mmHg 76%
    02:00 +14°C° 0 mm 1 m/s 609 mmHg 76%
    03:00 +13°C° 0 mm 1 m/s 609 mmHg 76%
    04:00 +15°C° 0 mm 1 m/s 610 mmHg 74%
    05:00 +16°C° 0 mm 1 m/s 610 mmHg 71%
    06:00 +18°C° 0 mm 1 m/s 611 mmHg 69%
    07:00 +19°C° 0 mm 1 m/s 611 mmHg 65%
    08:00 +19°C° 0 mm 2 m/s 611 mmHg 61%
    09:00 +20°C° 0 mm 2 m/s 612 mmHg 58%
    10:00 +20°C° 0.4 mm 2 m/s 611 mmHg 60%
    11:00 +20°C° 0.4 mm 2 m/s 611 mmHg 62%
    12:00 +20°C° 0.4 mm 2 m/s 611 mmHg 65%
    13:00 +20°C° 0.8 mm 2 m/s 611 mmHg 65%
    14:00 +20°C° 0.8 mm 2 m/s 610 mmHg 66%
    15:00 +21°C° 0.8 mm 1 m/s 610 mmHg 66%
    16:00 +21°C° 0.4 mm 1 m/s 610 mmHg 68%
    17:00 +20°C° 0.4 mm 1 m/s 609 mmHg 69%
    18:00 +20°C° 0.4 mm 1 m/s 609 mmHg 71%
    19:00 +18°C° 0.1 mm 1 m/s 608 mmHg 75%
    20:00 +16°C° 0.1 mm 1 m/s 608 mmHg 79%
    21:00 +14°C° 0.1 mm 1 m/s 607 mmHg 83%
    22:00 +14°C° 0 mm 1 m/s 607 mmHg 84%
    23:00 +13°C° 0 mm 1 m/s 606 mmHg 85%

    Amanhã, 28 Junho, Sexta-feira

    Tempo Temperatura Precipitação Vento Pressão Humidade
    00:00 +13°C° 0 mm 1 m/s 606 mmHg 86%
    01:00 +13°C° 0 mm 1 m/s 606 mmHg 85%
    02:00 +12°C° 0 mm 1 m/s 605 mmHg 85%
    03:00 +12°C° 0 mm 1 m/s 605 mmHg 84%
    04:00 +13°C° 0 mm 1 m/s 605 mmHg 81%
    05:00 +15°C° 0 mm 1 m/s 606 mmHg 79%
    06:00 +16°C° 0 mm 1 m/s 606 mmHg 76%
    07:00 +18°C° 0 mm 1 m/s 607 mmHg 71%
    08:00 +20°C° 0 mm 1 m/s 607 mmHg 67%
    09:00 +20°C° 0 mm 2 m/s 607 mmHg 62%
    10:00 +20°C° 0.7 mm 2 m/s 607 mmHg 62%
    11:00 +21°C° 0.7 mm 2 m/s 607 mmHg 61%
    12:00 +23°C° 0.7 mm 2 m/s 607 mmHg 60%
    13:00 +23°C° 1.1 mm 2 m/s 606 mmHg 59%
    14:00 +23°C° 1.1 mm 2 m/s 606 mmHg 59%
    15:00 +23°C° 1.1 mm 2 m/s 606 mmHg 58%
    16:00 +21°C° 0.7 mm 2 m/s 605 mmHg 61%
    17:00 +21°C° 0.7 mm 2 m/s 605 mmHg 64%
    18:00 +21°C° 0.7 mm 1 m/s 604 mmHg 68%
    19:00 +19°C° 0 mm 1 m/s 604 mmHg 71%
    20:00 +16°C° 0 mm 1 m/s 603 mmHg 75%
    21:00 +14°C° 0 mm 1 m/s 603 mmHg 78%
    22:00 +14°C° 0 mm 1 m/s 603 mmHg 79%
    23:00 +15°C° 0 mm 1 m/s 603 mmHg 79%

    Depois de amanhã, 29 Junho, Sábado

    Tempo Temperatura Precipitação Vento Pressão Humidade
    00:00 +15°C° 0 mm 1 m/s 603 mmHg 79%
    01:00 +15°C° 0.1 mm 1 m/s 603 mmHg 80%
    02:00 +15°C° 0.1 mm 1 m/s 603 mmHg 80%
    03:00 +16°C° 0.1 mm 1 m/s 603 mmHg 80%
    04:00 +16°C° 0.3 mm 1 m/s 603 mmHg 80%
    05:00 +16°C° 0.3 mm 1 m/s 604 mmHg 79%
    06:00 +16°C° 0.3 mm 1 m/s 604 mmHg 79%
    07:00 +19°C° 0.4 mm 1 m/s 604 mmHg 75%
    08:00 +19°C° 0.4 mm 2 m/s 605 mmHg 71%
    09:00 +20°C° 0.4 mm 2 m/s 605 mmHg 67%
    10:00 +20°C° 1.6 mm 2 m/s 605 mmHg 68%
    11:00 +20°C° 1.6 mm 3 m/s 605 mmHg 70%
    12:00 +21°C° 1.6 mm 3 m/s 605 mmHg 71%
    13:00 +20°C° 2 mm 3 m/s 605 mmHg 73%
    14:00 +20°C° 2 mm 2 m/s 605 mmHg 74%
    15:00 +20°C° 2 mm 2 m/s 604 mmHg 76%
    16:00 +19°C° 1.5 mm 2 m/s 604 mmHg 75%
    17:00 +20°C° 1.5 mm 1 m/s 604 mmHg 75%
    18:00 +20°C° 1.5 mm 1 m/s 604 mmHg 74%
    19:00 +19°C° 1.3 mm 1 m/s 604 mmHg 81%
    20:00 +16°C° 1.3 mm 1 m/s 604 mmHg 87%
    21:00 +15°C° 1.3 mm 1 m/s 604 mmHg 93%
    22:00 +15°C° 3.7 mm 1 m/s 604 mmHg 94%
    23:00 +15°C° 3.7 mm 1 m/s 604 mmHg 94%

    30 Junho, Domingo

    Tempo Temperatura Precipitação Vento Pressão Humidade
    00:00 +14°C° 3.7 mm 1 m/s 604 mmHg 95%
    01:00 +14°C° 0.3 mm 1 m/s 604 mmHg 94%
    02:00 +14°C° 0.3 mm 1 m/s 604 mmHg 94%
    03:00 +13°C° 0.3 mm 1 m/s 604 mmHg 94%
    04:00 +14°C° 0.4 mm 1 m/s 604 mmHg 93%
    05:00 +14°C° 0.4 mm 1 m/s 604 mmHg 92%
    06:00 +14°C° 0.4 mm 1 m/s 605 mmHg 91%
    07:00 +14°C° 0.8 mm 1 m/s 605 mmHg 89%
    08:00 +14°C° 0.8 mm 2 m/s 605 mmHg 87%
    09:00 +15°C° 0.8 mm 2 m/s 605 mmHg 86%
    10:00 +15°C° 0.7 mm 2 m/s 606 mmHg 85%
    11:00 +15°C° 0.7 mm 2 m/s 606 mmHg 84%
    12:00 +16°C° 0.7 mm 2 m/s 606 mmHg 84%
    13:00 +15°C° 0.9 mm 2 m/s 605 mmHg 86%
    14:00 +15°C° 0.9 mm 2 m/s 605 mmHg 87%
    15:00 +15°C° 0.9 mm 2 m/s 605 mmHg 89%
    16:00 +14°C° 1.3 mm 2 m/s 605 mmHg 92%
    17:00 +14°C° 1.3 mm 2 m/s 605 mmHg 94%
    18:00 +14°C° 1.3 mm 2 m/s 605 mmHg 97%
    19:00 +12°C° 3.8 mm 3 m/s 605 mmHg 97%
    20:00 +12°C° 3.8 mm 3 m/s 605 mmHg 98%
    21:00 +12°C° 3.8 mm 4 m/s 606 mmHg 98%
    22:00 +11°C° 2.6 mm 3 m/s 606 mmHg 98%
    23:00 +11°C° 2.6 mm 3 m/s 606 mmHg 98%

    1 Julho, Segunda-feira

    Tempo Temperatura Precipitação Vento Pressão Humidade
    00:00 +11°C° 2.6 mm 3 m/s 606 mmHg 99%
    01:00 +11°C° 2.7 mm 3 m/s 606 mmHg 98%
    02:00 +10°C° 2.7 mm 3 m/s 606 mmHg 98%
    03:00 +10°C° 2.7 mm 3 m/s 605 mmHg 98%
    04:00 +9°C° 0.8 mm 2 m/s 605 mmHg 97%
    05:00 +9°C° 0.8 mm 2 m/s 605 mmHg 97%
    06:00 +9°C° 0.8 mm 2 m/s 605 mmHg 96%
    07:00 +8°C° 1.6 mm 2 m/s 605 mmHg 95%
    08:00 +9°C° 1.6 mm 1 m/s 605 mmHg 95%
    09:00 +9°C° 1.6 mm 1 m/s 605 mmHg 94%
    10:00 +9°C° 1.7 mm 1 m/s 605 mmHg 94%
    11:00 +8°C° 1.7 mm 2 m/s 605 mmHg 94%
    12:00 +8°C° 1.7 mm 2 m/s 605 mmHg 93%
    13:00 +9°C° 0.4 mm 2 m/s 606 mmHg 89%
    14:00 +9°C° 0.4 mm 2 m/s 606 mmHg 85%
    15:00 +10°C° 0.4 mm 2 m/s 606 mmHg 81%
    16:00 +10°C° 0.2 mm 2 m/s 606 mmHg 84%
    17:00 +9°C° 0.2 mm 2 m/s 606 mmHg 86%
    18:00 +9°C° 0.2 mm 2 m/s 606 mmHg 89%
    19:00 +8°C° 0.3 mm 2 m/s 606 mmHg 91%
    20:00 +9°C° 0.3 mm 1 m/s 606 mmHg 94%
    21:00 +8°C° 0.3 mm 1 m/s 606 mmHg 96%
    22:00 +8°C° 0.2 mm 1 m/s 606 mmHg 94%
    23:00 +7°C° 0.2 mm 1 m/s 606 mmHg 93%

    2 Julho, Terça-feira

    Tempo Temperatura Precipitação Vento Pressão Humidade
    00:00 +7°C° 0.2 mm 1 m/s 606 mmHg 91%
    01:00 +6°C° 0 mm 1 m/s 606 mmHg 91%
    02:00 +6°C° 0 mm 1 m/s 606 mmHg 90%
    03:00 +5°C° 0 mm 1 m/s 606 mmHg 89%
    04:00 +6°C° 0 mm 1 m/s 606 mmHg 86%
    05:00 +7°C° 0 mm 1 m/s 607 mmHg 83%
    06:00 +7°C° 0 mm 1 m/s 607 mmHg 80%
    07:00 +9°C° 0 mm 1 m/s 608 mmHg 77%
    08:00 +9°C° 0 mm 2 m/s 608 mmHg 74%
    09:00 +10°C° 0 mm 2 m/s 609 mmHg 71%
    10:00 +12°C° 0 mm 2 m/s 609 mmHg 69%
    11:00 +13°C° 0 mm 2 m/s 609 mmHg 66%
    12:00 +14°C° 0 mm 2 m/s 610 mmHg 63%
    13:00 +15°C° 0 mm 2 m/s 610 mmHg 61%
    14:00 +15°C° 0 mm 2 m/s 610 mmHg 60%
    15:00 +16°C° 0 mm 2 m/s 610 mmHg 58%
    16:00 +15°C° 0 mm 2 m/s 610 mmHg 64%
    17:00 +15°C° 0 mm 1 m/s 609 mmHg 69%
    18:00 +14°C° 0 mm 1 m/s 609 mmHg 75%
    19:00 +12°C° 0 mm 1 m/s 609 mmHg 76%
    20:00 +11°C° 0 mm 1 m/s 608 mmHg 77%
    21:00 +9°C° 0 mm 1 m/s 607 mmHg 78%
    22:00 +9°C° 0 mm 1 m/s 607 mmHg 76%
    23:00 +9°C° 0 mm 1 m/s 607 mmHg 75%
    Mostrar mais